YCOM

Details ICAO YCOM (OOM)
Name Cooma-Snowy Mountains
Region Australia
Timezone Australia/Sydney (UTC+10.0)
Plans Departing 6
Arriving 10
Stats Elevation 3,106 ft / 947 m (AMSL)
Location -36.303462° 148.971869°
Runways 2
Magnetic Variation 12.715° E
Sunrise 2018-05-22 21:01:24 UTC / 2018-05-23 07:01:24 Local
Sunset 2018-05-23 07:03:07 UTC / 2018-05-23 17:03:07 Local
Advertisement - Login to hide

Runways

ID Width Length Bearing (true) Bearing (mag) Surface Threshold Offset Overrun Length
14 66 ft / 20 m 2,445 ft / 745 m 150.11° 137.39° Dirt 0 ft / 0 m 0 ft / 0 m
18 148 ft / 45 m 6,968 ft / 2,124 m 192.70° 179.98° Asphalt 233 ft / 71 m 0 ft / 0 m
32 66 ft / 20 m 2,445 ft / 745 m 330.10° 317.38° Dirt 0 ft / 0 m 0 ft / 0 m
36 148 ft / 45 m 6,968 ft / 2,124 m 12.70° 359.98° Asphalt 0 ft / 0 m 0 ft / 0 m

Map

Weather


0- 5 10 15 20 25 30 35+ Temperature / ° C

Clouds and Precipitation
Forecast for 2018-05-22 18:00 UTC. Updated 3 hours ago

Ground ~20,000 ft ~40,000 ft Winds

METAR

YCOM 222000Z AUTO 07003KT 0400 // OVC001 03/03 Q1024

TAF

Not found

Frequencies

Unicom 122.30 MHz ACTIVATE LIGHTS ONLY MULT
Tower 118.80 MHz MELBOURNE CNTR
Unicom 118.10 MHz COOMA UNIC
Tower 119.40 MHz MELBOURNE CNTR
Warning: Do not use this data for real-world aviation or navigation. No guarantee of current accuracy is given.